[[{"header":{"parameterUnit":"m.s-1","parameterCategory":1,"la1":30.2991,"la2":30.254,"lo1":-89.0895,"lo2":-89.0444,"dx":0.0017,"dy":0.0017,"nx":28,"ny":28,"refTime":"2022-11-19T09:00:00:Z","depth":0,"parameterNumber":2,"parameterNumberName":"U-component_of_WINDS"},"data":[0,0,0,0,0,0,0,0,0,0,0,0,0,0,0,0,0,0,0,0,0,0,0,0,0,0,0,0,0,0,0,0,0,0,0,0,0,0,0,0,0,0,0,0,0,0,0,0,0,0,0,0,0,0,0,0,0,0,-3.3357,-3.3357,0,-3.3378,-3.3378,-3.3378,-3.326,-3.3256,-3.3253,-3.325,-3.3273,-3.3276,-3.328,0,0,0,0,0,0,0,0,0,0,0,0,0,-3.3213,-3.3216,-3.3357,-3.3357,-3.3357,-3.3378,-3.3378,-3.3379,-3.326,-3.3256,-3.3252,-3.3248,-3.3271,-3.3276,-3.328,0,0,0,0,0,0,0,0,0,0,0,0,0,-3.3259,-3.3218,-3.3357,-3.3301,-3.3296,-3.3378,-3.3378,-3.3379,-3.3261,-3.3256,-3.3251,-3.3246,-3.327,-3.3275,-3.3281,-3.3418,0,0,-3.3298,-3.3301,0,0,0,0,0,0,0,0,-3.3257,-3.3265,-3.3309,-3.3305,-3.3299,-3.3311,-3.3336,-3.3392,-3.3262,-3.3274,-3.325,-3.3244,-3.329,-3.3293,-3.3308,-3.3419,-3.342,-3.3299,-3.3302,-3.3305,-3.3306,0,0,0,0,0,0,0,-3.3254,-3.3263,-3.3365,-3.3309,-3.3304,-3.3274,-3.3275,-3.3346,-3.331,-3.3273,-3.3264,-3.3268,-3.3286,-3.3303,-3.3308,-3.3421,-3.3299,-3.3304,-3.3307,-3.3309,-3.3644,-3.3649,0,0,0,0,0,0,-3.3258,-3.3261,-3.3364,-3.3366,-3.3265,-3.3281,-3.3282,-3.3312,-3.3309,-3.3304,-3.3273,-3.3263,-3.3296,-3.3302,-3.3309,-3.3469,-3.3305,-3.331,-3.3313,-3.3639,-3.3645,-3.3651,0,0,0,0,0,0,-3.3255,-3.3268,-3.3363,-3.3311,-3.3321,-3.3289,-3.3324,-3.3316,-3.3333,-3.3309,-3.3302,-3.3297,-3.3292,-3.3301,-3.3392,-3.3468,-3.3313,-3.3318,-3.3632,-3.3641,-3.3648,-3.3792,0,0,0,0,0,0,-3.3252,-3.3268,-3.332,-3.3313,-3.3324,-3.3447,-3.3329,-3.332,-3.3343,-3.333,-3.333,-3.3325,-3.3289,-3.3384,-3.3397,-3.3473,-3.3322,-3.3625,-3.3636,-3.3646,-3.378,-3.3804,-3.3824,0,0,0,0,0,-3.3247,-3.336,-3.3323,-3.3337,-3.3389,-3.3452,-3.3458,-3.3414,-3.3349,-3.3401,-3.3386,-3.3325,-3.3457,-3.3394,-3.3408,-3.3487,-3.362,-3.3633,-3.3645,-3.377,-3.3799,-3.3824,0,0,0,0,0,0,-3.3378,-3.3358,-3.3317,-3.3432,-3.3444,-3.3431,-3.3496,-3.3446,-3.3477,-3.3464,-3.3408,-3.3409,-3.351,-3.3507,-3.3437,-3.3619,-3.3528,-3.3543,-3.3618,-3.3645,-3.3667,-3.3667,-3.3327,0,0,0,0,0,-3.342,-3.3472,-3.3452,-3.3555,-3.3563,-3.3529,-3.3554,-3.3519,-3.353,-3.3535,-3.3526,-3.3539,-3.3583,-3.3614,-3.3653,-3.3778,-3.3777,-3.3839,-3.3862,-3.388,-3.3895,-3.3961,-3.3989,-3.3692,-3.3692,-3.3692,0,0,-3.3507,-3.3503,-3.354,-3.3581,-3.3587,-3.3643,-3.3534,-3.3598,-3.3639,-3.3544,-3.363,-3.3624,-3.3635,-3.3744,-3.3791,-3.3745,-3.3976,-3.3896,-3.391,-3.3915,-3.3977,-3.4005,-3.403,-3.37,-3.3699,-3.3697,0,0,-3.3696,-3.3698,-3.3784,-3.3791,-3.38,-3.3776,-3.3797,-3.3792,-3.3784,-3.3869,-3.3799,-3.3846,-3.3924,-3.3934,-3.395,-3.414,-3.4086,-3.4155,-3.4271,-3.4336,-3.436,-3.438,-3.4449,-3.4475,-3.4169,-3.4169,-3.417,0,-3.3804,-3.3886,-3.3834,-3.3903,-3.3923,-3.3838,-3.3925,-3.3935,-3.3957,-3.3973,-3.392,-3.4015,-3.4016,-3.4126,-3.4173,-3.4187,-3.421,-3.4156,-3.436,-3.438,-3.4399,-3.4464,-3.449,-3.4178,-3.4177,-3.4176,-3.4175,0,-3.4018,-3.4076,-3.4144,-3.4167,-3.4194,-3.4272,-3.4232,-3.4265,-3.4227,-3.4209,-3.4296,-3.4294,-3.4331,-3.4354,-3.4318,-3.4459,-3.443,-3.437,-3.4277,-3.4436,-3.4497,-3.4521,-3.419,-3.4187,-3.4184,-3.4182,0,0,-3.4293,-3.4285,-3.4311,-3.432,-3.4323,-3.4367,-3.444,-3.4476,-3.4506,-3.4523,-3.4584,-3.465,-3.4594,-3.4612,-3.4575,-3.4632,-3.4784,-3.4564,-3.4563,-3.4606,-3.4941,-3.4988,-3.5018,-3.4747,-3.4751,-3.4755,-3.494,0,-3.4479,-3.4603,-3.4558,-3.4685,-3.4738,-3.4657,-3.4721,-3.473,-3.4714,-3.4756,-3.4737,-3.4786,-3.4708,-3.4718,-3.477,-3.4755,-3.4851,-3.474,-3.4803,-3.4806,-3.4805,-3.5049,-3.5099,-3.5275,-3.4963,-3.4967,-3.497,0,-3.4713,-3.4739,-3.4872,-3.4865,-3.4885,-3.4943,-3.4972,-3.5013,-3.5021,-3.5005,-3.5025,-3.4975,-3.5046,-3.4951,-3.5048,-3.4974,-3.4996,-3.4992,-3.4998,-3.5004,-3.49,-3.5063,-3.5329,-3.5357,-3.5007,-3.5004,-3.5001,0,-3.4901,-3.497,-3.5058,-3.5068,-3.5062,-3.5105,-3.5104,-3.5107,-3.5131,-3.5156,-3.5171,-3.5204,-3.5223,-3.525,-3.5211,-3.5145,-3.5314,-3.5216,-3.5304,-3.5305,-3.5345,-3.5343,-3.562,-3.5357,-3.5356,-3.5356,-3.5355,0,-3.5115,-3.52,-3.5142,-3.5197,-3.5289,-3.5236,-3.5329,-3.5319,-3.5322,-3.5373,-3.5305,-3.5354,-3.5298,-3.5343,-3.5312,-3.5397,-3.5406,-3.5396,-3.5387,-3.5403,-3.5405,-3.5419,-3.5406,-3.5362,-3.5361,-3.536,-3.5358,0,-3.5343,-3.5307,-3.5399,-3.5385,-3.5383,-3.5452,-3.544,-3.549,-3.5468,-3.5534,-3.5546,-3.5512,-3.5561,-3.5523,-3.5571,-3.555,-3.5663,-3.5636,-3.5661,-3.5655,-3.5745,-3.5738,-3.6043,-3.608,-3.5791,-3.5794,-3.5796,0,-3.5482,-3.5545,-3.5538,-3.5567,-3.5571,-3.5619,-3.5643,-3.5592,-3.562,-3.5632,-3.5681,-3.5723,-3.5755,-3.5835,-3.5815,-3.5851,-3.5826,-3.593,-3.5831,-3.5845,-3.5829,-3.5827,-3.5833,-3.5951,-3.5954,-3.5957,-3.5959,0,-3.5734,-3.5713,-3.5751,-3.5782,-3.5812,-3.5835,-3.5851,-3.5879,-3.5827,-3.5862,-3.591,-3.5934,-3.5982,-3.6025,-3.6054,-3.6053,-3.5999,-3.599,-3.6013,-3.6031,-3.6044,-3.6039,-3.5718,-3.5984,-3.5982,-3.598,-3.5979,-3.5978,-3.5923,-3.5976,-3.5978,-3.6022,-3.6029,-3.6046,-3.6092,-3.6075,-3.6114,-3.6149,-3.6116,-3.6175,-3.6179,-3.6212,-3.6218,-3.6263,-3.622,-3.6252,-3.6261,-3.627,-3.6284,-3.6035,-3.6267,-3.6267,-3.6266,-3.6265,-3.6265,0,-3.6173,-3.617,-3.6211,-3.6236,-3.627,-3.6214,-3.6229,-3.6262,-3.6314,-3.6322,-3.6354,-3.641,-3.645,-3.6433,-3.6469,-3.6508,-3.6484,-3.6519,-3.6517,-3.6518,-3.6319,-3.6297,-3.6538,-3.6538,-3.6538,-3.6538,-3.6538,-3.6538,-3.6307,-3.6393,-3.6372,-3.646,-3.6456,-3.6513,-3.6527,-3.6542,-3.6548,-3.6613,-3.6647,-3.6634,-3.6632,-3.6667,-3.6702,-3.6696,-3.6713,-3.6758,-3.6743,-3.6559,-3.6532,-3.6506,-3.6485,-3.6762,-3.6762,-3.6938,-3.694,-3.6941]},{"header":{"parameterUnit":"m.s-1","parameterCategory":1,"la1":30.2991,"la2":30.254,"lo1":-89.0895,"lo2":-89.0444,"dx":0.0017,"dy":0.0017,"nx":28,"ny":28,"refTime":"2022-11-19T09:00:00:Z","depth":0,"parameterNumber":3,"parameterNumberName":"V-component_of_WINDS"},"data":[0,0,0,0,0,0,0,0,0,0,0,0,0,0,0,0,0,0,0,0,0,0,0,0,0,0,0,0,0,0,0,0,0,0,0,0,0,0,0,0,0,0,0,0,0,0,0,0,0,0,0,0,0,0,0,0,0,0,-7.1683,-7.1684,0,-7.1791,-7.1793,-7.1794,-7.1677,-7.1673,-7.1668,-7.1664,-7.177,-7.1776,-7.1783,0,0,0,0,0,0,0,0,0,0,0,0,0,-7.1368,-7.1374,-7.1683,-7.1684,-7.1685,-7.1791,-7.1793,-7.1794,-7.1678,-7.1673,-7.1667,-7.1662,-7.1767,-7.1775,-7.1784,0,0,0,0,0,0,0,0,0,0,0,0,0,-7.1493,-7.1376,-7.1682,-7.164,-7.1638,-7.1791,-7.1793,-7.1794,-7.1679,-7.1672,-7.1666,-7.1659,-7.1765,-7.1775,-7.1785,-7.1983,0,0,-7.1817,-7.1821,0,0,0,0,0,0,0,0,-7.1486,-7.1505,-7.1645,-7.1644,-7.1641,-7.1714,-7.172,-7.1858,-7.1681,-7.1663,-7.1664,-7.1656,-7.1756,-7.1767,-7.1802,-7.1988,-7.1993,-7.1818,-7.1824,-7.1829,-7.1832,0,0,0,0,0,0,0,-7.1478,-7.15,-7.1725,-7.1647,-7.1645,-7.1614,-7.1624,-7.1746,-7.1746,-7.1664,-7.1656,-7.1671,-7.1753,-7.1792,-7.1803,-7.1994,-7.1817,-7.1827,-7.1833,-7.1837,-7.2347,-7.2354,0,0,0,0,0,0,-7.1475,-7.1493,-7.1722,-7.1729,-7.1546,-7.1625,-7.1637,-7.1697,-7.1744,-7.1745,-7.1676,-7.1665,-7.1777,-7.1791,-7.1807,-7.2041,-7.1829,-7.1838,-7.1844,-7.234,-7.2349,-7.2357,0,0,0,0,0,0,-7.1468,-7.1496,-7.1717,-7.1609,-7.1635,-7.1637,-7.1706,-7.1703,-7.1741,-7.1753,-7.1752,-7.1716,-7.1773,-7.1792,-7.194,-7.2043,-7.1843,-7.1853,-7.2331,-7.2343,-7.2353,-7.2513,0,0,0,0,0,0,-7.146,-7.1495,-7.1572,-7.1612,-7.1641,-7.1852,-7.1713,-7.171,-7.176,-7.1746,-7.179,-7.1791,-7.1769,-7.1925,-7.1951,-7.2054,-7.1861,-7.2322,-7.2336,-7.2349,-7.2498,-7.2528,-7.2553,0,0,0,0,0,-7.1449,-7.1612,-7.1576,-7.1605,-7.1738,-7.1858,-7.1875,-7.1848,-7.1769,-7.1845,-7.1853,-7.179,-7.2028,-7.1942,-7.1969,-7.2077,-7.2315,-7.2332,-7.2348,-7.2486,-7.2522,-7.2552,0,0,0,0,0,0,-7.1582,-7.1616,-7.1577,-7.1758,-7.1807,-7.1838,-7.1934,-7.1887,-7.1957,-7.1941,-7.1902,-7.1913,-7.2071,-7.2088,-7.1992,-7.2271,-7.2158,-7.2181,-7.2254,-7.2288,-7.2315,-7.2307,-7.1869,0,0,0,0,0,-7.1633,-7.173,-7.1753,-7.191,-7.1937,-7.1932,-7.1983,-7.1958,-7.2006,-7.2025,-7.2043,-7.2091,-7.2175,-7.2233,-7.2312,-7.25,-7.2507,-7.2587,-7.2615,-7.2637,-7.2657,-7.2757,-7.2793,-7.241,-7.241,-7.241,0,0,-7.1738,-7.1768,-7.1832,-7.1938,-7.1972,-7.2072,-7.195,-7.206,-7.2133,-7.2041,-7.2183,-7.2198,-7.2248,-7.2417,-7.2492,-7.2436,-7.2765,-7.2658,-7.2676,-7.2684,-7.2778,-7.2814,-7.2846,-7.2421,-7.2419,-7.2418,0,0,-7.198,-7.2014,-7.2148,-7.2185,-7.224,-7.2235,-7.2267,-7.2307,-7.2314,-7.2456,-7.2389,-7.2474,-7.2622,-7.266,-7.2699,-7.2955,-7.2899,-7.2981,-7.3124,-7.3222,-7.3252,-7.3279,-7.337,-7.3403,-7.3001,-7.3001,-7.3002,0,-7.2103,-7.2253,-7.2222,-7.2338,-7.2386,-7.2309,-7.2444,-7.248,-7.2557,-7.2591,-7.2528,-7.2712,-7.274,-7.2916,-7.2979,-7.3013,-7.3047,-7.2976,-7.3251,-7.3277,-7.3301,-7.3388,-7.3422,-7.3011,-7.301,-7.3009,-7.3008,0,-7.2401,-7.2506,-7.2607,-7.2686,-7.2745,-7.2869,-7.2856,-7.2919,-7.2888,-7.289,-7.3034,-7.3065,-7.3149,-7.3188,-7.3159,-7.3361,-7.3325,-7.3257,-7.3143,-7.3348,-7.3428,-7.3461,-7.3025,-7.3022,-7.3019,-7.3016,0,0,-7.2731,-7.2791,-7.2829,-7.2863,-7.2917,-7.2997,-7.3116,-7.32,-7.3255,-7.331,-7.3408,-7.3535,-7.3473,-7.3517,-7.349,-7.3576,-7.3777,-7.3497,-7.3498,-7.3548,-7.4,-7.4051,-7.409,-7.3739,-7.3746,-7.3751,-7.3996,0,-7.2975,-7.3186,-7.3161,-7.3362,-7.3457,-7.3385,-7.3489,-7.3532,-7.3537,-7.3616,-7.3619,-7.371,-7.3621,-7.3647,-7.3729,-7.3735,-7.3867,-7.3717,-7.3829,-7.3834,-7.382,-7.4132,-7.4186,-7.4416,-7.4027,-7.4032,-7.4036,0,-7.3288,-7.3356,-7.3567,-7.3606,-7.3645,-7.374,-7.3814,-7.3892,-7.3938,-7.3935,-7.3985,-7.3943,-7.4061,-7.3945,-7.4106,-7.4005,-7.4049,-7.4059,-7.4067,-7.4077,-7.3948,-7.415,-7.4489,-7.4524,-7.4085,-7.4081,-7.4078,0,-7.3508,-7.3652,-7.3797,-7.3828,-7.3877,-7.3945,-7.3968,-7.4009,-7.406,-7.4124,-7.4157,-7.4233,-7.4275,-7.4334,-7.4313,-7.4231,-7.4478,-7.4361,-7.4478,-7.4479,-7.4534,-7.4531,-7.4885,-7.4562,-7.4562,-7.4561,-7.456,0,-7.3782,-7.3914,-7.3896,-7.3985,-7.413,-7.4099,-7.4242,-7.4256,-7.4292,-7.4381,-7.4322,-7.4406,-7.4373,-7.4455,-7.4439,-7.4574,-7.4593,-7.4593,-7.4587,-7.4599,-7.4599,-7.4627,-7.4611,-7.457,-7.4568,-7.4566,-7.4565,0,-7.4053,-7.4046,-7.4199,-7.4233,-7.4245,-7.435,-7.4378,-7.446,-7.4459,-7.4572,-7.4597,-7.4595,-7.4688,-7.4673,-7.4775,-7.4764,-7.4934,-7.4908,-7.4919,-7.4913,-7.5031,-7.502,-7.5416,-7.5466,-7.5111,-7.5115,-7.5117,0,-7.4229,-7.4329,-7.4374,-7.4431,-7.4459,-7.455,-7.4603,-7.4576,-7.4633,-7.4693,-7.4768,-7.4856,-7.4924,-7.5075,-7.5082,-7.5159,-7.5135,-7.5269,-7.5146,-7.5155,-7.5137,-7.5132,-7.5141,-7.5293,-7.5297,-7.53,-7.5303,0,-7.4542,-7.4534,-7.4614,-7.4693,-7.4758,-7.4818,-7.4872,-7.4921,-7.4897,-7.4964,-7.5059,-7.5113,-7.5218,-7.5305,-7.5378,-7.5398,-7.5347,-7.5341,-7.5372,-7.5386,-7.5388,-7.5388,-7.4985,-7.5333,-7.533,-7.5327,-7.5326,-7.5325,-7.4771,-7.4856,-7.4902,-7.4992,-7.503,-7.5082,-7.5161,-7.5171,-7.525,-7.5335,-7.5313,-7.5421,-7.5462,-7.5555,-7.5584,-7.5666,-7.5616,-7.5662,-7.5673,-7.5685,-7.5699,-7.5375,-7.5679,-7.5678,-7.5677,-7.5676,-7.5676,0,-7.5081,-7.5107,-7.519,-7.5269,-7.5339,-7.5286,-7.5343,-7.5405,-7.5501,-7.5546,-7.5615,-7.5724,-7.5808,-7.5821,-7.5901,-7.5964,-7.5942,-7.5985,-7.5981,-7.5986,-7.5739,-7.5704,-7.6002,-7.6002,-7.6002,-7.6001,-7.6001,-7.6001,-7.5251,-7.5393,-7.539,-7.5549,-7.5572,-7.5679,-7.5716,-7.5762,-7.5798,-7.5923,-7.5993,-7.6002,-7.6033,-7.6114,-7.6189,-7.619,-7.6222,-7.6275,-7.6267,-7.6036,-7.6003,-7.5973,-7.594,-7.6282,-7.6282,-7.6507,-7.6509,-7.6511]}]]